Regional Weather Roundup
Issued by NWS

Home | Current Version | Previous Version | Text Only | Print | Product List | Glossary On
Versions: 1 2 3 4 5 6 7 8 9 10 11 12 13 14 15 16 17 18 19 20 21 22 23 24 25 26 27 28 29 30 31 32 33 34 35 36 37 38 39 40 41 42 43 44 45 46 47 48
000
ASUS43 KDMX 010407
RWRIA

WEATHER ROUNDUP FOR IOWA
NATIONAL WEATHER SERVICE DES MOINES IA
1100 PM CDT TUE MAR 31 2015

NOTE: "FAIR" INDICATES FEW OR NO CLOUDS BELOW 12,000 FEET WITH NO
SIGNIFICANT WEATHER AND/OR OBSTRUCTIONS TO VISIBILITY.

* - THESE STATIONS ARE NOT NWS STATIONS...THUS NOT UNDER NWS
QUALITY CONTROL.  THEY ALSO DO NOT REPORT WEATHER SUCH
AS PRECIPITATION OR FOG.

IAZ001>003-012>014-020>022-031>034-043>046-010500-
   NORTHWEST IOWA

CITY           SKY/WX    TMP DP  RH WIND       PRES   REMARKS
CARROLL *      PTCLDY    50  30  46 S8        29.89F
CHEROKEE *     PTCLDY    55  32  41 S8        29.84F
DENISON *      PTCLDY    61  30  31 S13       29.86F
LE MARS *      CLEAR     57  32  38 S5        29.83S
ORANGE CITY *  CLEAR     57  28  33 S9        29.82F
SHELDON *      CLEAR     57  32  38 S14       29.81F
SIOUX CITY     PTCLDY    60  32  34 SE8       29.83F
SPENCER        PTCLDY    50  33  52 S8        29.84F
STORM LAKE *   CLEAR     52  32  46 S14       29.87F
$$

IAZ055>058-069>071-079>083-090>094-010500-
   SOUTHWEST IOWA

CITY           SKY/WX    TMP DP  RH WIND       PRES   REMARKS
ATLANTIC *     CLEAR     52  32  46 SW3       29.91F
AUDUBON *      CLEAR     39  30  70 CALM      29.91F
CLARINDA *     CLEAR     43  37  81 CALM      29.94S
COUNCIL BLFS * PTCLDY    61  32  33 S12       29.89F
CRESTON *      CLEAR     54  32  43 SE7       29.94F
HARLAN  *      CLEAR     52  32  46 S7        29.93S
LAMONI         CLEAR     62  31  31 S8        29.95R
RED OAK *      CLEAR     55  32  41 S5        29.91F
SHENANDOAH *   CLEAR     55  34  44 SE9       29.91F
$$

IAZ047>049-059>061-072>074-084-010500-
   CENTRAL IOWA

CITY           SKY/WX    TMP DP  RH WIND       PRES   REMARKS
AMES           CLEAR     48  33  56 SE6       29.92S
ANKENY *       CLEAR     50  34  53 CALM      29.93S
CHARITON *     PTCLDY    55  34  44 SE6       29.95S
DES MOINES     CLEAR     58  31  35 S8        29.93S
GRINNELL*      CLEAR     54  32  43 SE6       29.94F
KNOXVILLE *    CLEAR     57  30  35 S7        29.94R
MARSHALLTOWN   CLEAR     53  32  44 SE7       29.92S
PELLA *        CLEAR     55  36  47 S5        29.96R
PERRY *          N/A     50  32  50 S8        29.91F
$$

IAZ004>006-015-016-023>025-035-036-010500-
   NORTH CENTRAL IOWA

CITY           SKY/WX    TMP DP  RH WIND       PRES   REMARKS
ALGONA *       CLEAR     55  34  44 SE10      29.87F
CLARION *      CLEAR     52  34  50 SE13      29.89F
ESTHERVILLE    PTCLDY    51  33  50 S10       29.84F
FORT DODGE *   CLEAR     57  34  41 SE6       29.89F
MASON CITY     CLEAR     47  35  63 SE8       29.91F
FOREST CITY *  CLEAR     43  34  70 E5        29.89S
IOWA FALLS *     N/A     48  34  57 SE9       29.92F
$$

IAZ007>011-017>019-026>030-037>042-050>054-066-010500-
   NORTHEAST IOWA

CITY           SKY/WX    TMP DP  RH WIND       PRES   REMARKS
CEDAR RAPIDS   CLEAR     48  32  53 SE3       29.94R
CHARLES CITY * PTCLDY    50  34  53 SE7       29.92S
CLINTON *      CLEAR     41  28  60 NE3       29.98S
DECORAH *      CLEAR     48  34  57 S5        29.92S
DUBUQUE        CLEAR     42  29  59 CALM      29.95S
MONTICELLO *   PTCLDY    41  34  75 CALM      29.95S
OELWEIN *      CLEAR     46  36  66 SE7       29.94S
WATERLOO       CLEAR     41  33  73 SE3       29.92S
$$

IAZ064-065-067-068-078-010500-
   EAST CENTRAL IOWA

CITY           SKY/WX    TMP DP  RH WIND       PRES   REMARKS
DAVENPORT      CLEAR     47  28  47 CALM      29.96S
IOWA CITY      CLEAR     44  32  62 CALM      29.96S
MT. PLEASANT * CLEAR     50  32  50 S6        29.96S
MUSCATINE *    PTCLDY    46  34  61 CALM      29.96S
QUAD CITIES    CLEAR     45  30  55 CALM      29.96R
$$

IAZ062-063-075>077-085>089-095>099-010500-
   SOUTHEAST IOWA

CITY           SKY/WX    TMP DP  RH WIND       PRES   REMARKS
BURLINGTON     CLEAR     52  33  48 S3        29.96S
FAIRFIELD *    CLEAR     50  32  50 SE5       29.96S
FORT MADISON * CLEAR     57  32  38 SE3       29.97S
KEOKUK *       CLEAR     54  32  43 SE5       29.97R
OSKALOOSA *      N/A     48  30  49 S7        29.96S
CENTERVILLE *  CLEAR     54  32  43 SE6       29.98R
OTTUMWA        CLEAR     48  32  53 S5        29.95S
WASHINGTON *   CLEAR     50  32  50 S7        29.95S
$$

ABBREVIATIONS USED IN REMARKS
   TC - TEMPERATURES IN CELSIUS
  WCI - WIND CHILL INDEX
   HX - HEAT INDEX
  VSB - VISIBILITY
$$




USA.gov is the U.S. government's official web portal to all federal, state and local government web resources and services.